• In Belarus
  • List of Countries
  • For 7 days
  • Water Temperature
  • Satellite Maps
  • Weather Map
  • Weather Widgets
  • user-avatar
    Login

    Hourly Weather Sylhet

    Today, 20 April, Friday

    Time Temperature Precipitation Wind Pressure Humidity
    00:00 +27°C° 0.1 mm 2 mps 754 mmHg 79%
    01:00 +27°C° 0.2 mm 2 mps 754 mmHg 81%
    02:00 +26°C° 0.2 mm 2 mps 754 mmHg 83%
    03:00 +26°C° 0.2 mm 2 mps 753 mmHg 85%
    04:00 +26°C° 0.3 mm 2 mps 754 mmHg 86%
    05:00 +25°C° 0.3 mm 2 mps 754 mmHg 87%
    06:00 +25°C° 0.3 mm 3 mps 754 mmHg 89%
    07:00 +27°C° 0.5 mm 3 mps 754 mmHg 82%
    08:00 +29°C° 0.5 mm 3 mps 755 mmHg 76%
    09:00 +31°C° 0.5 mm 3 mps 755 mmHg 69%
    10:00 +33°C° 0.4 mm 3 mps 755 mmHg 62%
    11:00 +35°C° 0.4 mm 3 mps 755 mmHg 56%
    12:00 +36°C° 0.4 mm 3 mps 755 mmHg 49%
    13:00 +36°C° 0.1 mm 3 mps 754 mmHg 48%
    14:00 +37°C° 0.1 mm 3 mps 753 mmHg 48%
    15:00 +37°C° 0.1 mm 3 mps 752 mmHg 48%
    16:00 +36°C° 0.1 mm 3 mps 752 mmHg 52%
    17:00 +35°C° 0.1 mm 2 mps 752 mmHg 56%
    18:00 +34°C° 0.1 mm 2 mps 752 mmHg 60%
    19:00 +32°C° 1 mm 2 mps 753 mmHg 67%
    20:00 +30°C° 1 mm 2 mps 753 mmHg 74%
    21:00 +29°C° 1 mm 2 mps 754 mmHg 81%
    22:00 +28°C° 1.4 mm 2 mps 754 mmHg 84%
    23:00 +27°C° 1.4 mm 2 mps 754 mmHg 86%

    Tomorrow, 21 April, Saturday

    Time Temperature Precipitation Wind Pressure Humidity
    00:00 +27°C° 1.4 mm 2 mps 754 mmHg 89%
    01:00 +27°C° 0.9 mm 2 mps 754 mmHg 90%
    02:00 +26°C° 0.9 mm 2 mps 753 mmHg 90%
    03:00 +26°C° 0.9 mm 2 mps 753 mmHg 91%
    04:00 +26°C° 0.6 mm 2 mps 753 mmHg 91%
    05:00 +26°C° 0.6 mm 2 mps 753 mmHg 91%
    06:00 +26°C° 0.6 mm 3 mps 754 mmHg 91%
    07:00 +28°C° 0.6 mm 3 mps 754 mmHg 86%
    08:00 +29°C° 0.6 mm 3 mps 755 mmHg 81%
    09:00 +30°C° 0.6 mm 3 mps 755 mmHg 76%
    10:00 +33°C° 0.5 mm 3 mps 755 mmHg 71%
    11:00 +34°C° 0.5 mm 3 mps 755 mmHg 65%
    12:00 +36°C° 0.5 mm 4 mps 755 mmHg 59%
    13:00 +36°C° 0.1 mm 4 mps 754 mmHg 56%
    14:00 +37°C° 0.1 mm 4 mps 753 mmHg 53%
    15:00 +38°C° 0.1 mm 4 mps 752 mmHg 50%
    16:00 +36°C° 0.3 mm 3 mps 752 mmHg 55%
    17:00 +35°C° 0.3 mm 3 mps 751 mmHg 61%
    18:00 +34°C° 0.3 mm 3 mps 751 mmHg 66%
    19:00 +31°C° 2.3 mm 3 mps 752 mmHg 72%
    20:00 +30°C° 2.3 mm 3 mps 753 mmHg 78%
    21:00 +29°C° 2.3 mm 3 mps 754 mmHg 84%
    22:00 +28°C° 0.5 mm 3 mps 754 mmHg 85%
    23:00 +28°C° 0.5 mm 3 mps 754 mmHg 87%

    Day after tomorrow, 22 April, Sunday

    Time Temperature Precipitation Wind Pressure Humidity
    00:00 +28°C° 0.5 mm 2 mps 754 mmHg 89%
    01:00 +28°C° 1.2 mm 2 mps 754 mmHg 89%
    02:00 +28°C° 1.2 mm 2 mps 753 mmHg 90%
    03:00 +27°C° 1.2 mm 2 mps 753 mmHg 91%
    04:00 +27°C° 1.5 mm 2 mps 753 mmHg 91%
    05:00 +27°C° 1.5 mm 2 mps 754 mmHg 91%
    06:00 +27°C° 1.5 mm 2 mps 754 mmHg 91%
    07:00 +28°C° 0.4 mm 3 mps 754 mmHg 86%
    08:00 +29°C° 0.4 mm 3 mps 755 mmHg 81%
    09:00 +32°C° 0.4 mm 4 mps 756 mmHg 76%
    10:00 +31°C° 0.1 mm 3 mps 755 mmHg 73%
    11:00 +32°C° 0.1 mm 2 mps 755 mmHg 70%
    12:00 +34°C° 0.1 mm 2 mps 755 mmHg 67%
    13:00 +35°C° 0.2 mm 2 mps 754 mmHg 63%
    14:00 +36°C° 0.2 mm 3 mps 754 mmHg 59%
    15:00 +37°C° 0.2 mm 3 mps 753 mmHg 55%
    16:00 +36°C° 0.2 mm 3 mps 752 mmHg 60%
    17:00 +35°C° 0.2 mm 2 mps 752 mmHg 64%
    18:00 +34°C° 0.2 mm 2 mps 752 mmHg 69%
    19:00 +31°C° 1.8 mm 2 mps 753 mmHg 74%
    20:00 +30°C° 1.8 mm 3 mps 754 mmHg 79%
    21:00 +29°C° 1.8 mm 4 mps 755 mmHg 84%
    22:00 +28°C° 0.1 mm 3 mps 755 mmHg 85%
    23:00 +28°C° 0.1 mm 3 mps 755 mmHg 86%

    23 April, Monday

    Time Temperature Precipitation Wind Pressure Humidity
    00:00 +28°C° 0.1 mm 3 mps 754 mmHg 87%
    01:00 +27°C° 0 mm 2 mps 754 mmHg 88%
    02:00 +27°C° 0 mm 2 mps 754 mmHg 90%
    03:00 +27°C° 0 mm 2 mps 753 mmHg 91%
    04:00 +27°C° 0.2 mm 2 mps 754 mmHg 91%
    05:00 +27°C° 0.2 mm 2 mps 754 mmHg 90%
    06:00 +27°C° 0.2 mm 2 mps 755 mmHg 90%
    07:00 +28°C° 0.4 mm 2 mps 755 mmHg 85%
    08:00 +30°C° 0.4 mm 2 mps 756 mmHg 80%
    09:00 +31°C° 0.4 mm 3 mps 756 mmHg 75%
    10:00 +32°C° 0.2 mm 2 mps 756 mmHg 69%
    11:00 +34°C° 0.2 mm 2 mps 755 mmHg 64%
    12:00 +36°C° 0.2 mm 2 mps 755 mmHg 59%
    13:00 +36°C° 0.1 mm 2 mps 754 mmHg 57%
    14:00 +37°C° 0.1 mm 2 mps 753 mmHg 54%
    15:00 +37°C° 0.1 mm 2 mps 752 mmHg 52%
    16:00 +36°C° 0 mm 2 mps 752 mmHg 56%
    17:00 +35°C° 0 mm 1 mps 752 mmHg 59%
    18:00 +34°C° 0 mm 1 mps 752 mmHg 63%
    19:00 +32°C° 0.2 mm 2 mps 753 mmHg 67%
    20:00 +31°C° 0.2 mm 2 mps 754 mmHg 72%
    21:00 +30°C° 0.2 mm 2 mps 754 mmHg 77%
    22:00 +29°C° 0.3 mm 2 mps 754 mmHg 80%
    23:00 +28°C° 0.3 mm 2 mps 754 mmHg 83%

    24 April, Tuesday

    Time Temperature Precipitation Wind Pressure Humidity
    00:00 +28°C° 0.3 mm 1 mps 754 mmHg 85%
    01:00 +28°C° 0.2 mm 1 mps 754 mmHg 87%
    02:00 +27°C° 0.2 mm 1 mps 753 mmHg 88%
    03:00 +27°C° 0.2 mm 2 mps 753 mmHg 90%
    04:00 +27°C° 0.2 mm 2 mps 753 mmHg 90%
    05:00 +27°C° 0.2 mm 2 mps 754 mmHg 91%
    06:00 +27°C° 0.2 mm 2 mps 754 mmHg 91%
    07:00 +28°C° 0.1 mm 2 mps 755 mmHg 85%
    08:00 +30°C° 0.1 mm 2 mps 755 mmHg 79%
    09:00 +31°C° 0.1 mm 3 mps 756 mmHg 73%
    10:00 +34°C° 0 mm 2 mps 755 mmHg 65%
    11:00 +36°C° 0 mm 2 mps 755 mmHg 58%
    12:00 +36°C° 0 mm 1 mps 755 mmHg 51%
    13:00 +38°C° 0 mm 2 mps 754 mmHg 46%
    14:00 +39°C° 0 mm 2 mps 753 mmHg 40%
    15:00 +40°C° 0 mm 2 mps 752 mmHg 35%
    16:00 +38°C° 0 mm 2 mps 752 mmHg 38%
    17:00 +37°C° 0 mm 2 mps 752 mmHg 42%
    18:00 +36°C° 0 mm 2 mps 752 mmHg 46%
    19:00 +34°C° 0 mm 2 mps 752 mmHg 52%
    20:00 +32°C° 0 mm 2 mps 753 mmHg 58%
    21:00 +30°C° 0 mm 2 mps 753 mmHg 64%
    22:00 +29°C° 0 mm 2 mps 753 mmHg 67%
    23:00 +29°C° 0 mm 2 mps 753 mmHg 70%

    25 April, Wednesday

    Time Temperature Precipitation Wind Pressure Humidity
    00:00 +28°C° 0 mm 2 mps 753 mmHg 73%
    01:00 +28°C° 0 mm 2 mps 753 mmHg 76%
    02:00 +28°C° 0 mm 2 mps 753 mmHg 79%
    03:00 +27°C° 0 mm 2 mps 752 mmHg 82%
    04:00 +27°C° 0 mm 2 mps 753 mmHg 83%
    05:00 +28°C° 0 mm 2 mps 753 mmHg 83%
    06:00 +28°C° 0 mm 2 mps 754 mmHg 84%
    07:00 +29°C° 0 mm 2 mps 754 mmHg 79%
    08:00 +30°C° 0 mm 2 mps 755 mmHg 75%
    09:00 +31°C° 0 mm 3 mps 755 mmHg 70%
    10:00 +34°C° 0 mm 2 mps 755 mmHg 64%
    11:00 +35°C° 0 mm 2 mps 754 mmHg 57%
    12:00 +37°C° 0 mm 2 mps 754 mmHg 51%
    13:00 +38°C° 0 mm 2 mps 753 mmHg 47%
    14:00 +39°C° 0 mm 2 mps 752 mmHg 43%
    15:00 +40°C° 0 mm 1 mps 751 mmHg 40%
    16:00 +38°C° 1.1 mm 2 mps 751 mmHg 46%
    17:00 +36°C° 1.1 mm 3 mps 751 mmHg 52%
    18:00 +34°C° 1.1 mm 4 mps 750 mmHg 58%
    19:00 +33°C° 6.7 mm 4 mps 752 mmHg 61%
    20:00 +30°C° 6.7 mm 3 mps 753 mmHg 65%
    21:00 +28°C° 6.7 mm 2 mps 754 mmHg 68%
    22:00 +27°C° 0 mm 2 mps 754 mmHg 70%
    23:00 +27°C° 0 mm 2 mps 754 mmHg 71%
    Show more